Weather History for Lamoni, IA

Change the Weather History Date:

Friday, May 30, 2014

  Actual Average Record
Temperature  
Mean Temperature 76 °F 66 °F  
Max Temperature 84 °F 76 °F 90 °F (1989)
Min Temperature 67 °F 56 °F 44 °F (1983)
Degree Days  
Heating Degree Days 0 2  
Month to date heating degree days 147 163  
Since 1 July heating degree days 6765 6058  
Cooling Degree Days 11 3  
Month to date cooling degree days 95 44  
Year to date cooling degree days 100 51  
Growing Degree Days 24 (Base 50)    
Moisture  
Dew Point 66 °F    
Average Humidity 74    
Maximum Humidity 93    
Minimum Humidity 55    
Precipitation  
Precipitation T in 0.15 in 1.63 in (2008)
Month to date precipitation 3.72 5.10  
Sea Level Pressure  
Sea Level Pressure 30.04 in    
Wind  
Wind Speed 5 mph (ESE)    
Max Wind Speed 15 mph    
Max Gust Speed 19 mph    
Visibility 9 miles    
Events      
T = Trace of Precipitation, MM = Missing Value Source: NWS Daily Summary

Daily Weather History Graph

Daily Weather History Graph

Search for Another Location

Airport:

Trip Planner

Search our weather history database for the weather conditions in past years. The results will help you decide how hot, cold, wet, or windy it might be!

Date:

Astronomy

May. 30, 2014 Rise Set
Actual Time 5:47 AM CDT 8:38 PM CDT
Civil Twilight 5:15 AM CDT 9:11 PM CDT
Nautical Twilight 4:34 AM CDT 9:52 PM CDT
Astronomical Twilight 3:47 AM CDT 10:39 PM CDT
Moon 7:32 AM CDT (5/30) 10:15 PM CDT (5/30)
Length of Visible Light 15h 55m
Length of Day
14h 51m
Waxing Crescent, 4% of the Moon is Illuminated
May 30
Waxing Crescent
Jun 5
First Quarter
Jun 12
Full
Jun 19
Last Quarter
Jun 27
New

Hourly Weather History & Observations

Time (CDT) Temp. Heat Index Dew Point Humidity Pressure Visibility Wind Dir Wind Speed Gust Speed Precip Events Conditions
12:53 AM 70.0 °F - 64.9 °F 84% 30.01 in 10.0 mi ESE 4.6 mph - N/A   Clear
1:53 AM 70.0 °F - 64.9 °F 84% 30.01 in 9.0 mi East 3.5 mph - N/A   Clear
2:53 AM 69.1 °F - 64.9 °F 87% 30.02 in 8.0 mi ESE 4.6 mph - N/A   Clear
3:53 AM 68.0 °F - 64.9 °F 90% 30.03 in 7.0 mi East 3.5 mph - N/A   Clear
4:53 AM 68.0 °F - 64.9 °F 90% 30.02 in 7.0 mi SE 3.5 mph - N/A   Clear
5:53 AM 66.9 °F - 64.9 °F 93% 30.04 in 4.0 mi East 3.5 mph - N/A   Clear
6:53 AM 69.1 °F - 66.0 °F 90% 30.05 in 5.0 mi East 4.6 mph - N/A   Clear
7:53 AM 70.0 °F - 66.0 °F 87% 30.06 in 6.0 mi Calm Calm - N/A   Clear
8:53 AM 72.0 °F - 66.9 °F 84% 30.08 in 8.0 mi East 4.6 mph - N/A   Partly Cloudy
9:53 AM 73.9 °F - 68.0 °F 82% 30.08 in 10.0 mi ENE 3.5 mph - N/A   Clear
10:53 AM 80.1 °F 82.9 °F 69.1 °F 69% 30.07 in 10.0 mi East 6.9 mph - N/A   Clear
11:53 AM 80.1 °F 82.3 °F 66.9 °F 64% 30.07 in 10.0 mi East 6.9 mph - N/A   Mostly Cloudy
1:53 PM 82.0 °F 83.8 °F 64.9 °F 56% 30.05 in 10.0 mi SE 8.1 mph 17.3 mph N/A   Scattered Clouds
2:53 PM 81.0 °F 82.7 °F 64.9 °F 58% 30.04 in 10.0 mi East 5.8 mph - N/A   Mostly Cloudy
4:53 PM 81.0 °F 84.4 °F 70.0 °F 69% 30.02 in 10.0 mi East 8.1 mph - N/A   Clear
5:53 PM 82.0 °F 84.5 °F 66.9 °F 60% 30.01 in 10.0 mi East 11.5 mph - N/A   Clear
6:53 PM 81.0 °F 82.7 °F 64.9 °F 58% 30.01 in 10.0 mi ESE 6.9 mph - N/A   Clear
7:53 PM 75.9 °F - 66.0 °F 71% 30.02 in 10.0 mi SSW 5.8 mph - N/A   Clear
8:53 PM 73.9 °F - 66.0 °F 76% 30.02 in 10.0 mi SE 6.9 mph - N/A   Clear
9:53 PM 73.0 °F - 64.9 °F 76% 30.04 in 10.0 mi ESE 4.6 mph - N/A   Clear
10:53 PM 71.1 °F - 64.0 °F 78% 30.06 in 10.0 mi SE 3.5 mph - N/A   Clear
11:53 PM 71.1 °F - 64.9 °F 81% 30.06 in 10.0 mi Calm Calm - N/A   Clear